Location: Peebles
(55.6412°N, 3.1714°W)
Time: 08:22:29
(UTC+01:00)

FLOCK 4V 19 - Visible Passes

Search period start: 26 June 2022 00:00
Search period end: 06 July 2022 00:00
Orbit: 500 x 506 km, 97.4° (Epoch: 25 June)

Date Brightness Start Highest point End Pass type
(mag) Time Alt. Az. Time Alt. Az. Time Alt. Az.
26 Jun ? 23:15:39 10° S 23:19:08 40° W 23:22:39 10° NNW visible
27 Jun ? 22:56:43 10° S 23:00:22 62° WSW 23:04:03 10° NNW visible
29 Jun ? 00:14:24 10° WSW 00:16:01 12° W 00:17:37 10° WNW visible
29 Jun ? 23:54:27 10° SW 23:57:03 18° W 23:59:41 10° NW visible
30 Jun ? 23:34:58 10° SSW 23:38:08 27° W 23:41:19 10° NW visible
01 Jul ? 23:15:45 10° S 23:19:14 40° W 23:22:44 10° NNW visible
02 Jul ? 22:56:42 10° S 23:00:21 62° WSW 23:04:02 10° NNW visible
04 Jul ? 00:14:15 10° WSW 00:15:52 12° W 00:17:29 10° WNW visible
04 Jul ? 23:54:11 10° SW 23:56:48 18° W 23:59:26 10° NW visible
05 Jul ? 23:34:35 10° SSW 23:37:45 27° W 23:40:57 10° NW visible
